Year,Month,Day,Hour,Minute,Value (Times are PST for temperature in C)
2006,08,24,00,00,13.70
2006,08,24,00,01,13.70
2006,08,24,00,02,13.70
2006,08,24,00,03,13.60
2006,08,24,00,04,13.60
2006,08,24,00,05,13.60
2006,08,24,00,06,13.60
2006,08,24,00,07,13.60
2006,08,24,00,08,13.60
2006,08,24,00,09,13.60
2006,08,24,00,10,13.60
2006,08,24,00,11,13.60
2006,08,24,00,12,13.60
2006,08,24,00,13,13.60
2006,08,24,00,14,13.60
2006,08,24,00,15,13.60
2006,08,24,00,16,13.60
2006,08,24,00,17,13.60
2006,08,24,00,18,13.60
2006,08,24,00,19,13.60
2006,08,24,00,20,13.60
2006,08,24,00,21,13.60
2006,08,24,00,22,13.60
2006,08,24,00,23,13.60
2006,08,24,00,24,13.60
2006,08,24,00,25,13.60
2006,08,24,00,26,13.60
2006,08,24,00,27,13.60
2006,08,24,00,28,13.60
2006,08,24,00,29,13.60
2006,08,24,00,30,13.60
2006,08,24,00,31,13.60
2006,08,24,00,32,13.60
2006,08,24,00,33,13.60
2006,08,24,00,34,13.60
2006,08,24,00,35,13.60
2006,08,24,00,36,13.60
2006,08,24,00,37,13.60
2006,08,24,00,38,13.50
2006,08,24,00,39,13.50
2006,08,24,00,40,13.50
2006,08,24,00,41,13.50
2006,08,24,00,42,13.50
2006,08,24,00,43,13.50
2006,08,24,00,44,13.50
2006,08,24,00,45,13.50
2006,08,24,00,46,13.50
2006,08,24,00,47,13.50
2006,08,24,00,48,13.50
2006,08,24,00,49,13.50
2006,08,24,00,50,13.50
2006,08,24,00,51,13.50
2006,08,24,00,52,13.50
2006,08,24,00,53,13.50
2006,08,24,00,54,13.50
2006,08,24,00,55,13.50
2006,08,24,00,56,13.50
2006,08,24,00,57,13.50
2006,08,24,00,58,13.50
2006,08,24,00,59,13.50
2006,08,24,01,00,13.50
2006,08,24,01,01,13.50
2006,08,24,01,02,13.50
2006,08,24,01,03,13.50
2006,08,24,01,04,13.50
2006,08,24,01,05,13.50
2006,08,24,01,06,13.50
2006,08,24,01,07,13.50
2006,08,24,01,08,13.50
2006,08,24,01,09,13.50
2006,08,24,01,10,13.50
2006,08,24,01,11,13.50
2006,08,24,01,12,13.50
2006,08,24,01,13,13.50
2006,08,24,01,14,13.50
2006,08,24,01,15,13.50
2006,08,24,01,16,13.50
2006,08,24,01,17,13.50
2006,08,24,01,18,13.50
2006,08,24,01,19,13.50
2006,08,24,01,20,13.50
2006,08,24,01,21,13.50
2006,08,24,01,22,13.50
2006,08,24,01,23,13.50
2006,08,24,01,24,13.40
2006,08,24,01,25,13.40
2006,08,24,01,26,13.40
2006,08,24,01,27,13.40
2006,08,24,01,28,13.40
2006,08,24,01,29,13.40
2006,08,24,01,30,13.40
2006,08,24,01,31,13.40
2006,08,24,01,32,13.40
2006,08,24,01,33,13.40
2006,08,24,01,34,13.40
2006,08,24,01,35,13.40
2006,08,24,01,36,13.40
2006,08,24,01,37,13.40
2006,08,24,01,38,13.50
2006,08,24,01,39,13.50
2006,08,24,01,40,13.50
2006,08,24,01,41,13.50
2006,08,24,01,42,13.50
2006,08,24,01,43,13.50
2006,08,24,01,44,13.50
2006,08,24,01,45,13.50
2006,08,24,01,46,13.50
2006,08,24,01,47,13.40
2006,08,24,01,48,13.40
2006,08,24,01,49,13.40
2006,08,24,01,50,13.40
2006,08,24,01,51,13.40
2006,08,24,01,52,13.40
2006,08,24,01,53,13.30
2006,08,24,01,54,13.30
2006,08,24,01,55,13.30
2006,08,24,01,56,13.30
2006,08,24,01,57,13.30
2006,08,24,01,58,13.30
2006,08,24,01,59,13.30
2006,08,24,02,00,13.30
2006,08,24,02,01,13.30
2006,08,24,02,02,13.30
2006,08,24,02,03,13.30
2006,08,24,02,04,13.30
2006,08,24,02,05,13.30
2006,08,24,02,06,13.30
2006,08,24,02,07,13.30
2006,08,24,02,08,13.30
2006,08,24,02,09,13.30
2006,08,24,02,10,13.30
2006,08,24,02,11,13.30
2006,08,24,02,12,13.30
2006,08,24,02,13,13.20
2006,08,24,02,14,13.20
2006,08,24,02,15,13.20
2006,08,24,02,16,13.20
2006,08,24,02,17,13.20
2006,08,24,02,18,13.20
2006,08,24,02,19,13.20
2006,08,24,02,20,13.20
2006,08,24,02,21,13.20
2006,08,24,02,22,13.20
2006,08,24,02,23,13.20
2006,08,24,02,24,13.20
2006,08,24,02,25,13.20
2006,08,24,02,26,13.20
2006,08,24,02,27,13.20
2006,08,24,02,28,13.10
2006,08,24,02,29,13.10
2006,08,24,02,30,13.10
2006,08,24,02,31,13.10
2006,08,24,02,32,13.10
2006,08,24,02,33,13.10
2006,08,24,02,34,13.00
2006,08,24,02,35,13.00
2006,08,24,02,36,13.00
2006,08,24,02,37,13.00
2006,08,24,02,38,13.00
2006,08,24,02,39,13.00
2006,08,24,02,40,13.00
2006,08,24,02,41,13.00
2006,08,24,02,42,12.90
2006,08,24,02,43,12.90
2006,08,24,02,44,12.90
2006,08,24,02,45,12.90
2006,08,24,02,46,12.90
2006,08,24,02,47,12.90
2006,08,24,02,48,12.90
2006,08,24,02,49,12.90
2006,08,24,02,50,12.90
2006,08,24,02,51,12.90
2006,08,24,02,52,12.80
2006,08,24,02,53,12.80
2006,08,24,02,54,12.80
2006,08,24,02,55,12.80
2006,08,24,02,56,12.80
2006,08,24,02,57,12.80
2006,08,24,02,58,12.80
2006,08,24,02,59,12.80
2006,08,24,03,00,12.80
2006,08,24,03,01,12.80
2006,08,24,03,02,12.80
2006,08,24,03,03,12.80
2006,08,24,03,04,12.80
2006,08,24,03,05,12.80
2006,08,24,03,06,12.70
2006,08,24,03,07,12.70
2006,08,24,03,08,12.70
2006,08,24,03,09,12.70
2006,08,24,03,10,12.70
2006,08,24,03,11,12.60
2006,08,24,03,12,12.60
2006,08,24,03,13,12.60
2006,08,24,03,14,12.60
2006,08,24,03,15,12.60
2006,08,24,03,16,12.50
2006,08,24,03,17,12.50
2006,08,24,03,18,12.50
2006,08,24,03,19,12.50
2006,08,24,03,20,12.50
2006,08,24,03,21,12.50
2006,08,24,03,22,12.40
2006,08,24,03,23,12.40
2006,08,24,03,24,12.40
2006,08,24,03,25,12.40
2006,08,24,03,26,12.40
2006,08,24,03,27,12.30
2006,08,24,03,28,12.30
2006,08,24,03,29,12.30
2006,08,24,03,30,12.30
2006,08,24,03,31,12.30
2006,08,24,03,32,12.30
2006,08,24,03,33,12.30
2006,08,24,03,34,12.30
2006,08,24,03,35,12.30
2006,08,24,03,36,12.30
2006,08,24,03,37,12.30
2006,08,24,03,38,12.30
2006,08,24,03,39,12.30
2006,08,24,03,40,12.30
2006,08,24,03,41,12.30
2006,08,24,03,42,12.20
2006,08,24,03,43,12.20
2006,08,24,03,44,12.20
2006,08,24,03,45,12.20
2006,08,24,03,46,12.20
2006,08,24,03,47,12.20
2006,08,24,03,48,12.20
2006,08,24,03,49,12.10
2006,08,24,03,50,12.10
2006,08,24,03,51,12.10
2006,08,24,03,52,12.10
2006,08,24,03,53,12.10
2006,08,24,03,54,12.10
2006,08,24,03,55,12.00
2006,08,24,03,56,12.00
2006,08,24,03,57,12.00
2006,08,24,03,58,12.00
2006,08,24,03,59,11.90
2006,08,24,04,00,11.90
2006,08,24,04,01,11.80
2006,08,24,04,02,11.80
2006,08,24,04,03,11.80
2006,08,24,04,04,11.80
2006,08,24,04,05,11.80
2006,08,24,04,06,11.70
2006,08,24,04,07,11.70
2006,08,24,04,08,11.70
2006,08,24,04,09,11.70
2006,08,24,04,10,11.70
2006,08,24,04,11,11.60
2006,08,24,04,12,11.60
2006,08,24,04,13,11.60
2006,08,24,04,14,11.60
2006,08,24,04,15,11.60
2006,08,24,04,16,11.60
2006,08,24,04,17,11.60
2006,08,24,04,18,11.60
2006,08,24,04,19,11.60
2006,08,24,04,20,11.60
2006,08,24,04,21,11.60
2006,08,24,04,22,11.60
2006,08,24,04,23,11.60
2006,08,24,04,24,11.60
2006,08,24,04,25,11.50
2006,08,24,04,26,11.40
2006,08,24,04,27,11.40
2006,08,24,04,28,11.40
2006,08,24,04,29,11.40
2006,08,24,04,30,11.40
2006,08,24,04,31,11.40
2006,08,24,04,32,11.30
2006,08,24,04,33,11.30
2006,08,24,04,34,11.30
2006,08,24,04,35,11.30
2006,08,24,04,36,11.30
2006,08,24,04,37,11.30
2006,08,24,04,38,11.20
2006,08,24,04,39,11.20
2006,08,24,04,40,11.20
2006,08,24,04,41,11.20
2006,08,24,04,42,11.20
2006,08,24,04,43,11.20
2006,08,24,04,44,11.20
2006,08,24,04,45,11.20
2006,08,24,04,46,11.20
2006,08,24,04,47,11.30
2006,08,24,04,48,11.30
2006,08,24,04,49,11.30
2006,08,24,04,50,11.30
2006,08,24,04,51,11.30
2006,08,24,04,52,11.40
2006,08,24,04,53,11.40
2006,08,24,04,54,11.40
2006,08,24,04,55,11.40
2006,08,24,04,56,11.40
2006,08,24,04,57,11.40
2006,08,24,04,58,11.40
2006,08,24,04,59,11.40
2006,08,24,05,00,11.60
2006,08,24,05,01,11.60
2006,08,24,05,02,11.60
2006,08,24,05,03,11.60
2006,08,24,05,04,11.70
2006,08,24,05,05,11.70
2006,08,24,05,06,11.70
2006,08,24,05,07,11.70
2006,08,24,05,08,11.70
2006,08,24,05,09,11.70
2006,08,24,05,10,11.70
2006,08,24,05,11,11.80
2006,08,24,05,12,11.80
2006,08,24,05,13,11.80
2006,08,24,05,14,11.80
2006,08,24,05,15,11.80
2006,08,24,05,16,11.80
2006,08,24,05,17,11.80
2006,08,24,05,18,11.80
2006,08,24,05,19,11.90
2006,08,24,05,20,11.90
2006,08,24,05,21,11.90
2006,08,24,05,22,11.90
2006,08,24,05,23,11.90
2006,08,24,05,24,12.00
2006,08,24,05,25,12.00
2006,08,24,05,26,12.00
2006,08,24,05,27,12.00
2006,08,24,05,28,12.10
2006,08,24,05,29,12.10
2006,08,24,05,30,12.10
2006,08,24,05,31,12.10
2006,08,24,05,32,12.20
2006,08,24,05,33,12.20
2006,08,24,05,34,12.20
2006,08,24,05,35,12.20
2006,08,24,05,36,12.30
2006,08,24,05,37,12.30
2006,08,24,05,38,12.30
2006,08,24,05,39,12.30
2006,08,24,05,40,12.30
2006,08,24,05,41,12.30
2006,08,24,05,42,12.30
2006,08,24,05,43,12.30
2006,08,24,05,44,12.40
2006,08,24,05,45,12.40
2006,08,24,05,46,12.40
2006,08,24,05,47,12.40
2006,08,24,05,48,12.40
2006,08,24,05,49,12.40
2006,08,24,05,50,12.40
2006,08,24,05,51,12.50
2006,08,24,05,52,12.50
2006,08,24,05,53,12.50
2006,08,24,05,54,12.50
2006,08,24,05,55,12.50
2006,08,24,05,56,12.60
2006,08,24,05,57,12.60
2006,08,24,05,58,12.60
2006,08,24,05,59,12.60
2006,08,24,06,00,12.60
2006,08,24,06,01,12.60
2006,08,24,06,02,12.60
2006,08,24,06,03,12.60
2006,08,24,06,04,12.60
2006,08,24,06,05,12.60
2006,08,24,06,06,12.60
2006,08,24,06,07,12.60
2006,08,24,06,08,12.60
2006,08,24,06,09,12.60
2006,08,24,06,10,12.60
2006,08,24,06,11,12.60
2006,08,24,06,12,12.60
2006,08,24,06,13,12.60
2006,08,24,06,14,12.60
2006,08,24,06,15,12.60
2006,08,24,06,16,12.50
2006,08,24,06,17,12.50
2006,08,24,06,18,12.50
2006,08,24,06,19,12.50
2006,08,24,06,20,12.60
2006,08,24,06,21,12.60
2006,08,24,06,22,12.60
2006,08,24,06,23,12.60
2006,08,24,06,24,12.60
2006,08,24,06,25,12.60
2006,08,24,06,26,12.60
2006,08,24,06,27,12.60
2006,08,24,06,28,12.60
2006,08,24,06,29,12.60
2006,08,24,06,30,12.60
2006,08,24,06,31,12.70
2006,08,24,06,32,12.70
2006,08,24,06,33,12.70
2006,08,24,06,34,12.70
2006,08,24,06,35,12.70
2006,08,24,06,36,12.80
2006,08,24,06,37,12.80
2006,08,24,06,38,12.80
2006,08,24,06,39,12.80
2006,08,24,06,40,12.80
2006,08,24,06,41,12.80
2006,08,24,06,42,12.80
2006,08,24,06,43,12.80
2006,08,24,06,44,12.90
2006,08,24,06,45,12.90
2006,08,24,06,46,12.90
2006,08,24,06,47,12.90
2006,08,24,06,48,12.90
2006,08,24,06,49,13.00
2006,08,24,06,50,13.00
2006,08,24,06,51,13.00
2006,08,24,06,52,13.00
2006,08,24,06,53,13.00
2006,08,24,06,54,13.00
2006,08,24,06,55,13.10
2006,08,24,06,56,13.10
2006,08,24,06,57,13.10
2006,08,24,06,58,13.10
2006,08,24,06,59,13.10
2006,08,24,07,00,13.10
2006,08,24,07,01,13.10
2006,08,24,07,02,13.10
2006,08,24,07,03,13.10
2006,08,24,07,04,13.20
2006,08,24,07,05,13.20
2006,08,24,07,06,13.20
2006,08,24,07,07,13.20
2006,08,24,07,08,13.20
2006,08,24,07,09,13.20
2006,08,24,07,10,13.20
2006,08,24,07,11,13.20
2006,08,24,07,12,13.30
2006,08,24,07,13,13.30
2006,08,24,07,14,13.30
2006,08,24,07,15,13.30
2006,08,24,07,16,13.30
2006,08,24,07,17,13.30
2006,08,24,07,18,13.30
2006,08,24,07,19,13.30
2006,08,24,07,20,13.30
2006,08,24,07,21,13.30
2006,08,24,07,22,13.40
2006,08,24,07,23,13.40
2006,08,24,07,24,13.40
2006,08,24,07,25,13.40
2006,08,24,07,26,13.40
2006,08,24,07,27,13.40
2006,08,24,07,28,13.40
2006,08,24,07,29,13.40
2006,08,24,07,30,13.40
2006,08,24,07,31,13.40
2006,08,24,07,32,13.40
2006,08,24,07,33,13.50
2006,08,24,07,34,13.50
2006,08,24,07,35,13.50
2006,08,24,07,36,13.50
2006,08,24,07,37,13.50
2006,08,24,07,38,13.60
2006,08,24,07,39,13.60
2006,08,24,07,40,13.60
2006,08,24,07,41,13.60
2006,08,24,07,42,13.60
2006,08,24,07,43,13.60
2006,08,24,07,44,13.70
2006,08,24,07,45,13.70
2006,08,24,07,46,13.70
2006,08,24,07,47,13.70
2006,08,24,07,48,13.70
2006,08,24,07,49,13.70
2006,08,24,07,50,13.70
2006,08,24,07,51,13.70
2006,08,24,07,52,13.70
2006,08,24,07,53,13.70
2006,08,24,07,54,13.80
2006,08,24,07,55,13.80
2006,08,24,07,56,13.80
2006,08,24,07,57,13.80
2006,08,24,07,58,13.90
2006,08,24,07,59,13.90
2006,08,24,08,00,13.90
2006,08,24,08,01,14.00
2006,08,24,08,02,14.00
2006,08,24,08,03,14.00
2006,08,24,08,04,14.00
2006,08,24,08,05,14.10
2006,08,24,08,06,14.10
2006,08,24,08,07,14.20
2006,08,24,08,08,14.20
2006,08,24,08,09,14.20
2006,08,24,08,10,14.20
2006,08,24,08,11,14.20
2006,08,24,08,12,14.30
2006,08,24,08,13,14.30
2006,08,24,08,14,14.30
2006,08,24,08,15,14.30
2006,08,24,08,16,14.30
2006,08,24,08,17,14.30
2006,08,24,08,18,14.40
2006,08,24,08,19,14.40
2006,08,24,08,20,14.40
2006,08,24,08,21,14.40
2006,08,24,08,22,14.40
2006,08,24,08,23,14.40
2006,08,24,08,24,14.40
2006,08,24,08,25,14.40
2006,08,24,08,26,14.50
2006,08,24,08,27,14.50
2006,08,24,08,28,14.50
2006,08,24,08,29,14.50
2006,08,24,08,30,14.50
2006,08,24,08,31,14.50
2006,08,24,08,32,14.50
2006,08,24,08,33,14.50
2006,08,24,08,34,14.60
2006,08,24,08,35,14.60
2006,08,24,08,36,14.60
2006,08,24,08,37,14.60
2006,08,24,08,38,14.60
2006,08,24,08,39,14.60
2006,08,24,08,40,14.60
2006,08,24,08,41,14.60
2006,08,24,08,42,14.60
2006,08,24,08,43,14.70
2006,08,24,08,44,14.70
2006,08,24,08,45,14.70
2006,08,24,08,46,14.70
2006,08,24,08,47,14.70
2006,08,24,08,48,14.80
2006,08,24,08,49,14.80
2006,08,24,08,50,14.80
2006,08,24,08,51,14.80
2006,08,24,08,52,14.80
2006,08,24,08,53,14.90
2006,08,24,08,54,14.90
2006,08,24,08,55,14.90
2006,08,24,08,56,14.90
2006,08,24,08,57,15.00
2006,08,24,08,58,15.00
2006,08,24,08,59,15.00
2006,08,24,09,00,15.10
2006,08,24,09,01,15.10
2006,08,24,09,02,15.10
2006,08,24,09,03,15.20
2006,08,24,09,04,15.20
2006,08,24,09,05,15.20
2006,08,24,09,06,15.30
2006,08,24,09,07,15.30
2006,08,24,09,08,15.30
2006,08,24,09,09,15.30
2006,08,24,09,10,15.30
2006,08,24,09,11,15.30
2006,08,24,09,12,15.30
2006,08,24,09,13,15.40
2006,08,24,09,14,15.40
2006,08,24,09,15,15.40
2006,08,24,09,16,15.40
2006,08,24,09,17,15.40
2006,08,24,09,18,15.40
2006,08,24,09,19,15.40
2006,08,24,09,20,15.30
2006,08,24,09,21,15.30
2006,08,24,09,22,15.40
2006,08,24,09,23,15.40
2006,08,24,09,24,15.50
2006,08,24,09,25,15.50
2006,08,24,09,26,15.60
2006,08,24,09,27,15.70
2006,08,24,09,28,15.90
2006,08,24,09,29,15.90
2006,08,24,09,30,16.10
2006,08,24,09,31,16.10
2006,08,24,09,32,16.10
2006,08,24,09,33,16.20
2006,08,24,09,34,16.20
2006,08,24,09,35,16.30
2006,08,24,09,36,16.30
2006,08,24,09,37,16.40
2006,08,24,09,38,16.40
2006,08,24,09,39,16.60
2006,08,24,09,40,16.60
2006,08,24,09,41,16.60
2006,08,24,09,42,16.70
2006,08,24,09,43,16.70
2006,08,24,09,44,16.80
2006,08,24,09,45,16.80
2006,08,24,09,46,16.80
2006,08,24,09,47,16.80
2006,08,24,09,48,16.90
2006,08,24,09,49,16.90
2006,08,24,09,50,17.00
2006,08,24,09,51,17.00
2006,08,24,09,52,17.00
2006,08,24,09,53,17.10
2006,08,24,09,54,17.20
2006,08,24,09,55,17.20
2006,08,24,09,56,17.30
2006,08,24,09,57,17.30
2006,08,24,09,58,17.30
2006,08,24,09,59,17.20
2006,08,24,10,00,17.00
2006,08,24,10,01,16.90
2006,08,24,10,02,16.80
2006,08,24,10,03,16.70
2006,08,24,10,04,16.70
2006,08,24,10,05,16.60
2006,08,24,10,06,16.50
2006,08,24,10,07,16.40
2006,08,24,10,08,16.30
2006,08,24,10,09,16.30
2006,08,24,10,10,16.30
2006,08,24,10,11,16.30
2006,08,24,10,12,16.40
2006,08,24,10,13,16.40
2006,08,24,10,14,16.50
2006,08,24,10,15,16.60
2006,08,24,10,16,16.60
2006,08,24,10,17,16.60
2006,08,24,10,18,16.50
2006,08,24,10,19,16.40
2006,08,24,10,20,16.40
2006,08,24,10,21,16.50
2006,08,24,10,22,16.60
2006,08,24,10,23,16.60
2006,08,24,10,24,16.60
2006,08,24,10,25,16.60
2006,08,24,10,26,16.60
2006,08,24,10,27,16.60
2006,08,24,10,28,16.60
2006,08,24,10,29,16.60
2006,08,24,10,30,16.70
2006,08,24,10,31,16.70
2006,08,24,10,32,16.70
2006,08,24,10,33,16.60
2006,08,24,10,34,16.60
2006,08,24,10,35,16.50
2006,08,24,10,36,16.40
2006,08,24,10,37,16.40
2006,08,24,10,38,16.40
2006,08,24,10,39,16.40
2006,08,24,10,40,16.60
2006,08,24,10,41,16.60
2006,08,24,10,42,16.60
2006,08,24,10,43,16.60
2006,08,24,10,44,16.60
2006,08,24,10,45,16.60
2006,08,24,10,46,16.50
2006,08,24,10,47,16.40
2006,08,24,10,48,16.40
2006,08,24,10,49,16.40
2006,08,24,10,50,16.40
2006,08,24,10,51,16.40
2006,08,24,10,52,16.60
2006,08,24,10,53,16.60
2006,08,24,10,54,16.70
2006,08,24,10,55,16.70
2006,08,24,10,56,16.70
2006,08,24,10,57,16.70
2006,08,24,10,58,16.70
2006,08,24,10,59,16.70
2006,08,24,11,00,16.70
2006,08,24,11,01,16.70
2006,08,24,11,02,16.70
2006,08,24,11,03,16.70
2006,08,24,11,04,16.70
2006,08,24,11,05,16.70
2006,08,24,11,06,16.70
2006,08,24,11,07,16.70
2006,08,24,11,08,16.80
2006,08,24,11,09,16.80
2006,08,24,11,10,16.80
2006,08,24,11,11,16.80
2006,08,24,11,12,16.80
2006,08,24,11,13,16.80
2006,08,24,11,14,16.80
2006,08,24,11,15,16.80
2006,08,24,11,16,16.80
2006,08,24,11,17,16.80
2006,08,24,11,18,16.90
2006,08,24,11,19,16.70
2006,08,24,11,20,16.70
2006,08,24,11,21,16.70
2006,08,24,11,22,16.60
2006,08,24,11,23,16.60
2006,08,24,11,24,16.40
2006,08,24,11,25,16.40
2006,08,24,11,26,16.40
2006,08,24,11,27,16.40
2006,08,24,11,28,16.40
2006,08,24,11,29,16.40
2006,08,24,11,30,16.40
2006,08,24,11,31,16.40
2006,08,24,11,32,16.40
2006,08,24,11,33,16.40
2006,08,24,11,34,16.40
2006,08,24,11,35,16.40
2006,08,24,11,36,16.40
2006,08,24,11,37,16.40
2006,08,24,11,38,16.40
2006,08,24,11,39,16.40
2006,08,24,11,40,16.40
2006,08,24,11,41,16.40
2006,08,24,11,42,16.50
2006,08,24,11,43,16.60
2006,08,24,11,44,16.60
2006,08,24,11,45,16.70
2006,08,24,11,46,16.70
2006,08,24,11,47,16.70
2006,08,24,11,48,16.70
2006,08,24,11,49,16.80
2006,08,24,11,50,16.80
2006,08,24,11,51,16.80
2006,08,24,11,52,16.80
2006,08,24,11,53,16.80
2006,08,24,11,54,16.80
2006,08,24,11,55,16.90
2006,08,24,11,56,16.90
2006,08,24,11,57,17.00
2006,08,24,11,58,17.10
2006,08,24,11,59,17.10
2006,08,24,12,00,17.20
2006,08,24,12,01,17.20
2006,08,24,12,02,17.30
2006,08,24,12,03,17.30
2006,08,24,12,04,17.30
2006,08,24,12,05,17.40
2006,08,24,12,06,17.40
2006,08,24,12,07,17.30
2006,08,24,12,08,17.30
2006,08,24,12,09,17.20
2006,08,24,12,10,17.30
2006,08,24,12,11,17.30
2006,08,24,12,12,17.50
2006,08,24,12,13,17.60
2006,08,24,12,14,17.70
2006,08,24,12,15,17.80
2006,08,24,12,16,17.90
2006,08,24,12,17,17.90
2006,08,24,12,18,18.00
2006,08,24,12,19,18.20
2006,08,24,12,20,18.20
2006,08,24,12,21,18.30
2006,08,24,12,22,18.30
2006,08,24,12,23,18.20
2006,08,24,12,24,18.10
2006,08,24,12,25,17.90
2006,08,24,12,26,17.90
2006,08,24,12,27,17.90
2006,08,24,12,28,17.90
2006,08,24,12,29,17.90
2006,08,24,12,30,17.90
2006,08,24,12,31,17.80
2006,08,24,12,32,17.80
2006,08,24,12,33,17.80
2006,08,24,12,34,17.80
2006,08,24,12,35,17.70
2006,08,24,12,36,17.60
2006,08,24,12,37,17.60
2006,08,24,12,38,17.60
2006,08,24,12,39,17.70
2006,08,24,12,40,17.80
2006,08,24,12,41,17.80
2006,08,24,12,42,17.90
2006,08,24,12,43,17.90
2006,08,24,12,44,17.90
2006,08,24,12,45,17.90
2006,08,24,12,46,17.90
2006,08,24,12,47,18.00
2006,08,24,12,48,18.10
2006,08,24,12,49,18.20
2006,08,24,12,50,18.30
2006,08,24,12,51,18.40
2006,08,24,12,52,18.40
2006,08,24,12,53,18.50
2006,08,24,12,54,18.50
2006,08,24,12,55,18.60
2006,08,24,12,56,18.70
2006,08,24,12,57,18.70
2006,08,24,12,58,18.90
2006,08,24,12,59,18.90
2006,08,24,13,00,18.90
2006,08,24,13,01,18.90
2006,08,24,13,02,18.90
2006,08,24,13,03,18.90
2006,08,24,13,04,18.90
2006,08,24,13,05,18.80
2006,08,24,13,06,18.70
2006,08,24,13,07,18.60
2006,08,24,13,08,18.50
2006,08,24,13,09,18.40
2006,08,24,13,10,18.40
2006,08,24,13,11,18.20
2006,08,24,13,12,18.10
2006,08,24,13,13,18.10
2006,08,24,13,14,18.20
2006,08,24,13,15,18.20
2006,08,24,13,16,18.20
2006,08,24,13,17,18.20
2006,08,24,13,18,18.20
2006,08,24,13,19,18.20
2006,08,24,13,20,18.20
2006,08,24,13,21,18.20
2006,08,24,13,22,18.40
2006,08,24,13,23,18.40
2006,08,24,13,24,18.50
2006,08,24,13,25,18.50
2006,08,24,13,26,18.60
2006,08,24,13,27,18.60
2006,08,24,13,28,18.70
2006,08,24,13,29,18.70
2006,08,24,13,30,18.70
2006,08,24,13,31,18.70
2006,08,24,13,32,18.60
2006,08,24,13,33,18.50
2006,08,24,13,34,18.50
2006,08,24,13,35,18.40
2006,08,24,13,36,18.50
2006,08,24,13,37,18.40
2006,08,24,13,38,18.40
2006,08,24,13,39,18.40
2006,08,24,13,40,18.40
2006,08,24,13,41,18.30
2006,08,24,13,42,18.30
2006,08,24,13,43,18.30
2006,08,24,13,44,18.30
2006,08,24,13,45,18.40
2006,08,24,13,46,18.60
2006,08,24,13,47,18.70
2006,08,24,13,48,18.80
2006,08,24,13,49,18.80
2006,08,24,13,50,18.90
2006,08,24,13,51,18.90
2006,08,24,13,52,18.90
2006,08,24,13,53,18.90
2006,08,24,13,54,18.90
2006,08,24,13,55,18.90
2006,08,24,13,56,18.90
2006,08,24,13,57,18.90
2006,08,24,13,58,18.90
2006,08,24,13,59,18.80
2006,08,24,14,00,18.70
2006,08,24,14,01,18.70
2006,08,24,14,02,18.70
2006,08,24,14,03,18.70
2006,08,24,14,04,18.80
2006,08,24,14,05,18.70
2006,08,24,14,06,18.60
2006,08,24,14,07,18.60
2006,08,24,14,08,18.70
2006,08,24,14,09,18.70
2006,08,24,14,10,18.70
2006,08,24,14,11,18.80
2006,08,24,14,12,18.90
2006,08,24,14,13,19.00
2006,08,24,14,14,19.10
2006,08,24,14,15,19.10
2006,08,24,14,16,19.10
2006,08,24,14,17,19.10
2006,08,24,14,18,19.10
2006,08,24,14,19,19.10
2006,08,24,14,20,19.00
2006,08,24,14,21,18.90
2006,08,24,14,22,18.90
2006,08,24,14,23,18.90
2006,08,24,14,24,18.90
2006,08,24,14,25,18.90
2006,08,24,14,26,18.90
2006,08,24,14,27,18.90
2006,08,24,14,28,18.90
2006,08,24,14,29,18.90
2006,08,24,14,30,18.90
2006,08,24,14,31,18.90
2006,08,24,14,32,19.00
2006,08,24,14,33,19.10
2006,08,24,14,34,18.90
2006,08,24,14,35,18.80
2006,08,24,14,36,18.80
2006,08,24,14,37,18.80
2006,08,24,14,38,18.80
2006,08,24,14,39,18.70
2006,08,24,14,40,18.70
2006,08,24,14,41,18.70
2006,08,24,14,42,18.60
2006,08,24,14,43,18.60
2006,08,24,14,44,18.70
2006,08,24,14,45,18.90
2006,08,24,14,46,18.90
2006,08,24,14,47,18.90
2006,08,24,14,48,19.10
2006,08,24,14,49,18.90
2006,08,24,14,50,18.90
2006,08,24,14,51,18.90
2006,08,24,14,52,18.80
2006,08,24,14,53,18.70
2006,08,24,14,54,18.60
2006,08,24,14,55,18.70
2006,08,24,14,56,18.80
2006,08,24,14,57,19.00
2006,08,24,14,58,19.20
2006,08,24,14,59,19.30
2006,08,24,15,00,19.20
2006,08,24,15,01,19.10
2006,08,24,15,02,19.10
2006,08,24,15,03,19.10
2006,08,24,15,04,19.10
2006,08,24,15,05,19.10
2006,08,24,15,06,19.00
2006,08,24,15,07,18.90
2006,08,24,15,08,18.90
2006,08,24,15,09,18.80
2006,08,24,15,10,18.70
2006,08,24,15,11,18.60
2006,08,24,15,12,18.50
2006,08,24,15,13,18.60
2006,08,24,15,14,18.70
2006,08,24,15,15,18.80
2006,08,24,15,16,18.90
2006,08,24,15,17,18.90
2006,08,24,15,18,18.80
2006,08,24,15,19,18.80
2006,08,24,15,20,18.90
2006,08,24,15,21,18.90
2006,08,24,15,22,18.90
2006,08,24,15,23,18.90
2006,08,24,15,24,18.90
2006,08,24,15,25,18.90
2006,08,24,15,26,18.90
2006,08,24,15,27,18.80
2006,08,24,15,28,18.80
2006,08,24,15,29,18.60
2006,08,24,15,30,18.60
2006,08,24,15,31,18.50
2006,08,24,15,32,18.50
2006,08,24,15,33,18.60
2006,08,24,15,34,18.70
2006,08,24,15,35,18.70
2006,08,24,15,36,18.70
2006,08,24,15,37,18.80
2006,08,24,15,38,18.90
2006,08,24,15,39,18.80
2006,08,24,15,40,18.70
2006,08,24,15,41,18.70
2006,08,24,15,42,18.60
2006,08,24,15,43,18.70
2006,08,24,15,44,18.80
2006,08,24,15,45,18.90
2006,08,24,15,46,18.90
2006,08,24,15,47,18.80
2006,08,24,15,48,18.70
2006,08,24,15,49,18.50
2006,08,24,15,50,18.50
2006,08,24,15,51,18.50
2006,08,24,15,52,18.50
2006,08,24,15,53,18.40
2006,08,24,15,54,18.40
2006,08,24,15,55,18.30
2006,08,24,15,56,18.30
2006,08,24,15,57,18.40
2006,08,24,15,58,18.40
2006,08,24,15,59,18.40
2006,08,24,16,00,18.50
2006,08,24,16,01,18.60
2006,08,24,16,02,18.60
2006,08,24,16,03,18.60
2006,08,24,16,04,18.60
2006,08,24,16,05,18.60
2006,08,24,16,06,18.60
2006,08,24,16,07,18.70
2006,08,24,16,08,18.80
2006,08,24,16,09,18.80
2006,08,24,16,10,18.80
2006,08,24,16,11,18.80
2006,08,24,16,12,18.90
2006,08,24,16,13,18.90
2006,08,24,16,14,18.80
2006,08,24,16,15,18.80
2006,08,24,16,16,18.80
2006,08,24,16,17,18.90
2006,08,24,16,18,19.00
2006,08,24,16,19,19.10
2006,08,24,16,20,19.20
2006,08,24,16,21,19.20
2006,08,24,16,22,19.20
2006,08,24,16,23,19.30
2006,08,24,16,24,19.20
2006,08,24,16,25,19.20
2006,08,24,16,26,19.20
2006,08,24,16,27,19.20
2006,08,24,16,28,19.20
2006,08,24,16,29,19.30
2006,08,24,16,30,19.30
2006,08,24,16,31,19.30
2006,08,24,16,32,19.30
2006,08,24,16,33,19.20
2006,08,24,16,34,19.10
2006,08,24,16,35,19.10
2006,08,24,16,36,19.00
2006,08,24,16,37,18.90
2006,08,24,16,38,18.80
2006,08,24,16,39,18.70
2006,08,24,16,40,18.60
2006,08,24,16,41,18.60
2006,08,24,16,42,18.60
2006,08,24,16,43,18.60
2006,08,24,16,44,18.70
2006,08,24,16,45,18.80
2006,08,24,16,46,18.80
2006,08,24,16,47,18.80
2006,08,24,16,48,18.80
2006,08,24,16,49,18.70
2006,08,24,16,50,18.70
2006,08,24,16,51,18.70
2006,08,24,16,52,18.80
2006,08,24,16,53,18.90
2006,08,24,16,54,18.90
2006,08,24,16,55,19.00
2006,08,24,16,56,19.10
2006,08,24,16,57,19.10
2006,08,24,16,58,19.10
2006,08,24,16,59,19.10
2006,08,24,17,00,19.10
2006,08,24,17,01,19.10
2006,08,24,17,02,19.10
2006,08,24,17,03,18.90
2006,08,24,17,04,18.90
2006,08,24,17,05,18.90
2006,08,24,17,06,18.90
2006,08,24,17,07,18.80
2006,08,24,17,08,18.70
2006,08,24,17,09,18.70
2006,08,24,17,10,18.70
2006,08,24,17,11,18.70
2006,08,24,17,12,18.70
2006,08,24,17,13,18.60
2006,08,24,17,14,18.60
2006,08,24,17,15,18.60
2006,08,24,17,16,18.50
2006,08,24,17,17,18.50
2006,08,24,17,18,18.60
2006,08,24,17,19,18.60